SXAET LGLM-LGKM

Flight info

Callsign SXAET
Flight time 0h 48m
Altitude 8500
Route DCT AMALA DCT 4040N02447E DCT 4051N02442E DCT 4055N02437E DCT PONTO DCT 4056N02425E DCT
Aircraft DA40/L-SDFGRY/SB2

Departure

Time 2026-04-27 06:21
Airport Limnos Airport (LGLM)

Arrival

Time 2026-04-27 07:09
Airport Kavala Amygdaleon Lydia Airfield (LGKM)
Time Latitude Longitude Altitude Speed Heading
2026-04-27 06:18 39.90758 25.22348 14 ft 0 kts 58°
2026-04-27 06:19 39.90764 25.22370 14 ft 3 kts 99°
2026-04-27 06:19 39.90751 25.22408 14 ft 5 kts 110°
2026-04-27 06:19 39.90730 25.22448 18 ft 6 kts 129°
2026-04-27 06:20 39.90729 25.22458 17 ft 0 kts 42°
2026-04-27 06:20 39.90858 25.22616 17 ft 47 kts 44°
2026-04-27 06:20 39.91104 25.22927 182 ft 51 kts 46°
2026-04-27 06:20 39.91382 25.23279 312 ft 58 kts 48°
2026-04-27 06:21 39.91690 25.23647 488 ft 57 kts 43°
2026-04-27 06:21 39.92025 25.23959 627 ft 64 kts 43°
2026-04-27 06:21 39.92357 25.24292 852 ft 58 kts 46°
2026-04-27 06:21 39.92679 25.24668 1005 ft 64 kts 52°
2026-04-27 06:22 39.93006 25.25035 1270 ft 62 kts 49°
2026-04-27 06:22 39.93286 25.25175 1434 ft 74 kts 20°
2026-04-27 06:22 39.93830 25.24852 1661 ft 102 kts 334°
2026-04-27 06:22 39.94496 25.23959 1967 ft 104 kts 333°
2026-04-27 06:23 39.94999 25.23290 2186 ft 102 kts 331°
2026-04-27 06:23 39.95500 25.22655 2414 ft 99 kts 331°
2026-04-27 06:23 39.95982 25.22026 2632 ft 96 kts 333°
2026-04-27 06:23 39.96458 25.21422 2830 ft 95 kts 329°
2026-04-27 06:24 39.96790 25.21045 2939 ft 93 kts 332°
2026-04-27 06:24 39.97286 25.20512 3108 ft 91 kts 337°
2026-04-27 06:24 39.97794 25.20041 3328 ft 89 kts 340°
2026-04-27 06:24 39.98272 25.19554 3557 ft 88 kts 337°
2026-04-27 06:25 39.98741 25.19073 3750 ft 81 kts 349°
2026-04-27 06:25 39.99281 25.18849 3967 ft 82 kts 355°
2026-04-27 06:25 39.99779 25.18495 4238 ft 81 kts 347°
2026-04-27 06:25 40.00301 25.18182 4393 ft 84 kts 351°
2026-04-27 06:26 40.00830 25.17864 4597 ft 84 kts 345°
2026-04-27 06:26 40.01397 25.17598 4767 ft 86 kts 348°
2026-04-27 06:26 40.01946 25.17315 4965 ft 86 kts 347°
2026-04-27 06:26 40.02522 25.17068 5138 ft 88 kts 347°
2026-04-27 06:27 40.03117 25.16841 5308 ft 90 kts 348°
2026-04-27 06:27 40.03706 25.16611 5510 ft 87 kts 349°
2026-04-27 06:27 40.04286 25.16361 5652 ft 90 kts 342°
2026-04-27 06:27 40.04877 25.16069 5817 ft 90 kts 342°
2026-04-27 06:28 40.05457 25.15778 6010 ft 89 kts 341°
2026-04-27 06:28 40.06052 25.15506 6175 ft 92 kts 342°
2026-04-27 06:28 40.06669 25.15248 6346 ft 94 kts 341°
2026-04-27 06:28 40.07289 25.15007 6535 ft 94 kts 341°
2026-04-27 06:29 40.07923 25.14769 6730 ft 96 kts 339°
2026-04-27 06:29 40.08547 25.14499 6920 ft 94 kts 339°
2026-04-27 06:29 40.09157 25.14179 7097 ft 94 kts 334°
2026-04-27 06:29 40.09750 25.13866 7300 ft 91 kts 335°
2026-04-27 06:30 40.10346 25.13543 7465 ft 92 kts 334°
2026-04-27 06:30 40.10933 25.13236 7672 ft 90 kts 334°
2026-04-27 06:30 40.11505 25.12949 7883 ft 87 kts 335°
2026-04-27 06:30 40.12073 25.12664 8039 ft 90 kts 334°
2026-04-27 06:31 40.12660 25.12358 8213 ft 90 kts 335°
2026-04-27 06:31 40.13229 25.12069 8421 ft 87 kts 335°
2026-04-27 06:31 40.13808 25.11767 8551 ft 92 kts 335°
2026-04-27 06:31 40.14406 25.11447 8704 ft 96 kts 334°
2026-04-27 06:32 40.15060 25.11106 8712 ft 105 kts 335°
2026-04-27 06:32 40.15739 25.10755 8709 ft 108 kts 335°
2026-04-27 06:32 40.16439 25.10360 8715 ft 110 kts 332°
2026-04-27 06:32 40.17126 25.09921 8715 ft 110 kts 331°
2026-04-27 06:33 40.17816 25.09473 8715 ft 110 kts 331°
2026-04-27 06:33 40.18504 25.09026 8712 ft 111 kts 331°
2026-04-27 06:33 40.19196 25.08566 8714 ft 111 kts 332°
2026-04-27 06:33 40.19888 25.08113 8712 ft 112 kts 331°
2026-04-27 06:34 40.20583 25.07652 8717 ft 113 kts 331°
2026-04-27 06:34 40.21289 25.07184 8716 ft 115 kts 331°
2026-04-27 06:34 40.22001 25.06722 8718 ft 114 kts 332°
2026-04-27 06:34 40.22708 25.06276 8716 ft 113 kts 332°
2026-04-27 06:35 40.23415 25.05820 8718 ft 113 kts 331°
2026-04-27 06:35 40.24119 25.05378 8717 ft 111 kts 331°
2026-04-27 06:35 40.24815 25.04949 8714 ft 110 kts 332°
2026-04-27 06:35 40.25501 25.04516 8712 ft 111 kts 332°
2026-04-27 06:36 40.26198 25.04065 8717 ft 111 kts 331°
2026-04-27 06:36 40.26895 25.03626 8713 ft 112 kts 332°
2026-04-27 06:36 40.27596 25.03167 8715 ft 113 kts 331°
2026-04-27 06:36 40.28301 25.02718 8714 ft 113 kts 332°
2026-04-27 06:37 40.29010 25.02258 8721 ft 113 kts 331°
2026-04-27 06:37 40.29720 25.01811 8719 ft 113 kts 330°
2026-04-27 06:37 40.30431 25.01353 8722 ft 114 kts 331°
2026-04-27 06:37 40.31149 25.00912 8728 ft 114 kts 331°
2026-04-27 06:38 40.31873 25.00496 8725 ft 114 kts 331°
2026-04-27 06:38 40.32600 25.00073 8723 ft 115 kts 333°
2026-04-27 06:38 40.33334 24.99634 8726 ft 115 kts 330°
2026-04-27 06:38 40.34069 24.99207 8723 ft 116 kts 333°
2026-04-27 06:39 40.34804 24.98755 8724 ft 117 kts 331°
2026-04-27 06:39 40.35544 24.98295 8727 ft 117 kts 330°
2026-04-27 06:39 40.36284 24.97853 8727 ft 116 kts 332°
2026-04-27 06:39 40.37023 24.97420 8726 ft 116 kts 331°
2026-04-27 06:40 40.37751 24.96981 8727 ft 116 kts 331°
2026-04-27 06:40 40.38488 24.96555 8726 ft 116 kts 330°
2026-04-27 06:40 40.39223 24.96133 8727 ft 115 kts 331°
2026-04-27 06:40 40.39975 24.95687 8604 ft 122 kts 332°
2026-04-27 06:41 40.40756 24.95213 8477 ft 122 kts 332°
2026-04-27 06:41 40.41522 24.94746 8352 ft 123 kts 332°
2026-04-27 06:41 40.42300 24.94256 8225 ft 125 kts 332°
2026-04-27 06:41 40.43084 24.93752 8101 ft 125 kts 330°
2026-04-27 06:42 40.43873 24.93270 7983 ft 125 kts 332°
2026-04-27 06:42 40.44646 24.92750 7851 ft 125 kts 329°
2026-04-27 06:42 40.45422 24.92236 7731 ft 124 kts 329°
2026-04-27 06:42 40.46201 24.91745 7607 ft 124 kts 329°
2026-04-27 06:43 40.46974 24.91245 7484 ft 125 kts 329°
2026-04-27 06:43 40.47751 24.90722 7360 ft 126 kts 330°
2026-04-27 06:43 40.48532 24.90192 7239 ft 126 kts 329°
2026-04-27 06:43 40.49314 24.89655 7119 ft 127 kts 329°
2026-04-27 06:44 40.50094 24.89110 6998 ft 127 kts 329°
2026-04-27 06:44 40.50876 24.88564 6876 ft 127 kts 329°
2026-04-27 06:44 40.51650 24.88026 6758 ft 127 kts 329°
2026-04-27 06:44 40.52434 24.87476 6637 ft 128 kts 329°
2026-04-27 06:45 40.53220 24.86921 6517 ft 128 kts 329°
2026-04-27 06:45 40.54002 24.86368 6389 ft 127 kts 329°
2026-04-27 06:45 40.54778 24.85814 6260 ft 127 kts 330°
2026-04-27 06:45 40.55548 24.85242 6133 ft 127 kts 329°
2026-04-27 06:46 40.56314 24.84664 6007 ft 126 kts 330°
2026-04-27 06:46 40.57069 24.84085 5878 ft 126 kts 329°
2026-04-27 06:46 40.57819 24.83496 5751 ft 125 kts 329°
2026-04-27 06:46 40.58564 24.82904 5626 ft 125 kts 329°
2026-04-27 06:47 40.59298 24.82308 5505 ft 123 kts 330°
2026-04-27 06:47 40.60019 24.81707 5379 ft 123 kts 329°
2026-04-27 06:47 40.60741 24.81106 5255 ft 122 kts 330°
2026-04-27 06:47 40.61446 24.80496 5131 ft 120 kts 330°
2026-04-27 06:48 40.62182 24.79979 5011 ft 120 kts 336°
2026-04-27 06:48 40.62912 24.79470 4881 ft 118 kts 335°
2026-04-27 06:48 40.63632 24.78960 4754 ft 120 kts 337°
2026-04-27 06:48 40.64352 24.78413 4626 ft 119 kts 335°
2026-04-27 06:49 40.65109 24.77986 4519 ft 117 kts 345°
2026-04-27 06:49 40.65849 24.77633 4516 ft 112 kts 345°
2026-04-27 06:49 40.66583 24.77276 4518 ft 112 kts 343°
2026-04-27 06:49 40.67303 24.76892 4518 ft 111 kts 345°
2026-04-27 06:50 40.68027 24.76527 4514 ft 112 kts 345°
2026-04-27 06:50 40.68734 24.76139 4516 ft 110 kts 345°
2026-04-27 06:50 40.69441 24.75718 4508 ft 111 kts 344°
2026-04-27 06:50 40.70139 24.75332 4505 ft 106 kts 343°
2026-04-27 06:51 40.70818 24.74980 4522 ft 107 kts 346°
2026-04-27 06:51 40.71517 24.74594 4524 ft 112 kts 346°
2026-04-27 06:51 40.72263 24.74220 4518 ft 115 kts 347°
2026-04-27 06:51 40.73039 24.73914 4516 ft 116 kts 350°
2026-04-27 06:52 40.73803 24.73627 4502 ft 110 kts 350°
2026-04-27 06:52 40.74514 24.73379 4513 ft 106 kts 351°
2026-04-27 06:52 40.75239 24.73155 4530 ft 110 kts 356°
2026-04-27 06:52 40.76004 24.72947 4518 ft 113 kts 356°
2026-04-27 06:53 40.76784 24.72734 4513 ft 115 kts 355°
2026-04-27 06:53 40.77562 24.72538 4519 ft 115 kts 356°
2026-04-27 06:53 40.78351 24.72343 4495 ft 116 kts 355°
2026-04-27 06:53 40.79140 24.72164 4495 ft 114 kts 355°
2026-04-27 06:54 40.79930 24.71961 4388 ft 117 kts 356°
2026-04-27 06:54 40.80724 24.71741 4259 ft 117 kts 355°
2026-04-27 06:54 40.81516 24.71492 4131 ft 117 kts 356°
2026-04-27 06:54 40.82299 24.71222 4001 ft 116 kts 357°
2026-04-27 06:55 40.83071 24.70927 3875 ft 117 kts 355°
2026-04-27 06:55 40.83872 24.70629 3748 ft 121 kts 355°
2026-04-27 06:55 40.84681 24.70305 3614 ft 122 kts 354°
2026-04-27 06:55 40.85504 24.70021 3499 ft 123 kts 355°
2026-04-27 06:56 40.86288 24.69447 3362 ft 139 kts 326°
2026-04-27 06:56 40.86952 24.68513 3233 ft 140 kts 323°
2026-04-27 06:56 40.87605 24.67586 3114 ft 139 kts 323°
2026-04-27 06:56 40.88264 24.66623 2972 ft 140 kts 320°
2026-04-27 06:57 40.88878 24.65637 2855 ft 142 kts 321°
2026-04-27 06:57 40.89483 24.64577 2729 ft 146 kts 320°
2026-04-27 06:57 40.90085 24.63498 2597 ft 146 kts 319°
2026-04-27 06:57 40.90691 24.62426 2467 ft 145 kts 319°
2026-04-27 06:58 40.91301 24.61380 2339 ft 144 kts 321°
2026-04-27 06:58 40.92816 24.59969 2080 ft 128 kts 345°
2026-04-27 06:58 40.93634 24.59525 1991 ft 125 kts 346°
2026-04-27 06:59 40.94409 24.59089 1986 ft 117 kts 346°
2026-04-27 06:59 40.95145 24.58676 1985 ft 113 kts 345°
2026-04-27 06:59 40.95848 24.58260 1982 ft 109 kts 345°
2026-04-27 06:59 40.96539 24.57841 1988 ft 112 kts 346°
2026-04-27 07:00 40.97195 24.57258 1985 ft 123 kts 316°
2026-04-27 07:00 40.97462 24.56148 1985 ft 132 kts 270°
2026-04-27 07:00 40.97272 24.54972 2019 ft 129 kts 255°
2026-04-27 07:00 40.97048 24.53828 2024 ft 132 kts 255°
2026-04-27 07:01 40.96820 24.52625 2025 ft 136 kts 255°
2026-04-27 07:01 40.96612 24.51409 2022 ft 136 kts 256°
2026-04-27 07:01 40.96397 24.50184 2024 ft 138 kts 256°
2026-04-27 07:01 40.96120 24.48973 2017 ft 137 kts 251°
2026-04-27 07:02 40.95826 24.47772 2024 ft 138 kts 246°
2026-04-27 07:02 40.95455 24.46599 2013 ft 138 kts 245°
2026-04-27 07:02 40.95086 24.45435 1960 ft 136 kts 254°
2026-04-27 07:02 40.94772 24.44278 1991 ft 135 kts 246°
2026-04-27 07:03 40.94368 24.43116 1862 ft 142 kts 244°
2026-04-27 07:03 40.93958 24.41922 1790 ft 143 kts 240°
2026-04-27 07:03 40.93498 24.40725 1660 ft 150 kts 242°
2026-04-27 07:03 40.93186 24.39396 1582 ft 151 kts 271°
2026-04-27 07:04 40.93628 24.38300 1557 ft 134 kts 329°
2026-04-27 07:04 40.94341 24.37548 1502 ft 129 kts 330°
2026-04-27 07:04 40.94966 24.36692 1264 ft 132 kts 302°
2026-04-27 07:04 40.95140 24.35506 1182 ft 131 kts 271°
2026-04-27 07:05 40.95158 24.34327 1190 ft 125 kts 275°
2026-04-27 07:05 40.95221 24.33230 1165 ft 114 kts 278°
2026-04-27 07:05 40.95366 24.32243 1176 ft 103 kts 300°
2026-04-27 07:05 40.95799 24.31566 1175 ft 94 kts 324°
2026-04-27 07:06 40.96293 24.31061 1173 ft 89 kts 332°
2026-04-27 07:06 40.96797 24.30598 1150 ft 89 kts 331°
2026-04-27 07:06 40.97311 24.30127 1140 ft 90 kts 333°
2026-04-27 07:06 40.97833 24.29694 1151 ft 86 kts 345°
2026-04-27 07:07 40.98388 24.29664 1082 ft 77 kts 32°
2026-04-27 07:07 40.98801 24.30029 961 ft 68 kts 49°
2026-04-27 07:07 40.99122 24.30491 830 ft 72 kts 55°
2026-04-27 07:07 40.99376 24.31020 766 ft 66 kts 71°
2026-04-27 07:08 40.99362 24.31584 750 ft 65 kts 119°
2026-04-27 07:08 40.99035 24.32056 617 ft 72 kts 136°
2026-04-27 07:08 40.98665 24.32499 488 ft 69 kts 135°
2026-04-27 07:08 40.98325 24.32906 405 ft 64 kts 135°
2026-04-27 07:09 40.97993 24.33313 306 ft 65 kts 136°
2026-04-27 07:09 40.97673 24.33694 207 ft 59 kts 132°
2026-04-27 07:09 40.97441 24.33982 205 ft 34 kts 136°
2026-04-27 07:09 40.97302 24.34144 203 ft 22 kts 139°
2026-04-27 07:10 40.97192 24.34285 203 ft 15 kts 103°
2026-04-27 07:10 40.97237 24.34386 203 ft 13 kts 59°
2026-04-27 07:10 40.97197 24.34460 203 ft 16 kts 140°
2026-04-27 07:10 40.97102 24.34563 203 ft 15 kts 139°
2026-04-27 07:11 40.97055 24.34632 205 ft 3 kts 53°
2026-04-27 07:11 40.97083 24.34670 204 ft 10 kts 48°
2026-04-27 07:11 40.97105 24.34677 204 ft 0 kts 315°